Regional Weather Roundup
Issued by NWS

Home | Current Version | Previous Version | Graphics & Text | Print | Product List | Glossary On
Versions: 1 2 3 4 5 6 7 8 9 10 11 12 13 14 15 16 17 18 19 20 21 22 23 24 25 26 27 28 29 30 31 32 33 34 35 36 37 38 39 40 41 42 43 44 45 46 47 48 49 50
973
ASUS44 KJAN 010510
RWRMS

MISSISSIPPI HOURLY WEATHER ROUNDUP
NATIONAL WEATHER SERVICE JACKSON MS
1100 PM CST SAT JAN 31 2015

NOTE: "FAIR: INDICATES FEW OR NO CLOUDS BELOW 12,000 FEET WITH NO
SIGNIFICANT WEATHER AND/OR OBSTRUCTIONS TO VISIBILITY.

MSZ001>002-007>008-010>013-018>021-025>028-034>036-010600-
NORTHWEST MISSISSIPPI

CITY           SKY/WX    TMP DP  RH WIND       PRES   REMARKS
CLARKSDALE     MOCLDY    48  32  53 SE10      30.09F
CLEVELAND      FAIR      51  33  50 S10       30.09F
GREENWOOD      CLOUDY    53  26  35 S12       30.12F
GREENVILLE     CLOUDY    51  31  46 S10       30.09F
GRENADA        FAIR      48  28  46 SE7       30.13F
OLIVE BRANCH   PTCLDY    46  27  46 S10       30.09F
OXFORD         FAIR      48  23  37 S7        30.14S
TUNICA         CLOUDY    46  32  57 SE10      30.09F
$$

MSZ003>006-009-014>017-022>024-029>033-037>039-010600-
NORTHEAST MISSISSIPPI

CITY           SKY/WX    TMP DP  RH WIND       PRES   REMARKS
COLUMBUS AFB   CLOUDY    45  28  51 SE5       30.17F
GOLDN TRIANGLE CLOUDY    48  27  43 S8        30.17F
STARKVILLE     FAIR      50  28  43 S3        30.17F
TUPELO         CLOUDY    50  23  34 S8        30.15F
$$

MSZ040-058-010600-
CENTRAL MISSISSIPPI

CITY           SKY/WX    TMP DP  RH WIND       PRES   REMARKS
JACKSON INTL   CLOUDY    51  36  56 S13       30.15F
JACKSON HAWKNS CLOUDY    52  36  54 SE9       30.14F
MERIDIAN KEY   CLOUDY    44  32  62 SW3       30.20S
MERIDIAN NAS   CLOUDY    46  30  53 CALM      30.19F
RAYMOND        FAIR      54  48  82 SE8G18    30.12F
VICKSBURG      CLOUDY    53  35  50 SE9       30.11F
$$

MSZ059>079-010600-
SOUTH MISSISSIPPI

CITY           SKY/WX    TMP DP  RH WIND       PRES   REMARKS
BROOKHAVEN     FAIR      52  45  76 SE6       30.16F
HATTIESBURG    MOCLDY    48  41  76 CALM      30.20F
MCCOMB         CLOUDY    50  45  83 SE7       30.15S
NATCHEZ        CLOUDY    54  43  66 SE14G20   30.11F
PINE BELT      MOCLDY    48  36  61 SE7       30.19F
$$

MSZ080>082-010600-
COASTAL MISSISSIPPI

CITY           SKY/WX    TMP DP  RH WIND       PRES   REMARKS
BILOXI         MOCLDY    51  47  87 E6        30.18F
PASCAGOULA     MOCLDY    43  42  97 CALM      30.20S
GULFPORT       MOCLDY    50  45  83 E3        30.17F
$$



USA.gov is the U.S. government's official web portal to all federal, state and local government web resources and services.